Time,TemperatureF,DewpointF,PressureIn,WindDirection,WindDirectionDegrees,WindSpeedMPH,WindSpeedGustMPH,Humidity,HourlyPrecipIn,Conditions,Clouds,dailyrainin,SolarRadiationWatts/m^2,SoftwareType,DateUTC
2013-09-08 00:00:00,61.4,57.5,29.78,SSW,206,0.0,1.0,87,0.00,,,0.00,0,Wunderground v.1.15,2013-09-08 04:00:00,
2013-09-08 00:01:00,61.3,57.7,29.78,SSW,206,0.0,0.0,88,0.00,,,0.00,0,Wunderground v.1.15,2013-09-08 04:01:00,
2013-09-08 00:03:00,61.3,57.7,29.78,SSW,206,0.0,1.0,88,0.00,,,0.00,0,Wunderground v.1.15,2013-09-08 04:03:00,
2013-09-08 00:04:00,61.3,57.7,29.77,SSW,213,0.0,2.0,88,0.00,,,0.00,0,Wunderground v.1.15,2013-09-08 04:04:00,
2013-09-08 00:09:00,61.2,57.0,29.77,SW,217,1.0,2.0,86,0.00,,,0.00,0,Wunderground v.1.15,2013-09-08 04:09:00,
2013-09-08 00:12:00,61.2,57.0,29.77,SW,221,1.0,1.0,86,0.00,,,0.00,0,Wunderground v.1.15,2013-09-08 04:12:00,
2013-09-08 00:18:00,61.3,57.1,29.78,SW,221,1.0,1.0,86,0.00,,,0.00,0,Wunderground v.1.15,2013-09-08 04:18:00,
2013-09-08 00:24:00,61.3,57.1,29.77,SW,221,0.0,0.0,86,0.00,,,0.00,0,Wunderground v.1.15,2013-09-08 04:24:00,
2013-09-08 00:30:00,61.3,57.1,29.77,SW,221,0.0,0.0,86,0.00,,,0.00,0,Wunderground v.1.15,2013-09-08 04:30:00,
2013-09-08 00:36:00,61.3,57.4,29.77,SW,221,0.0,0.0,87,0.00,,,0.00,0,Wunderground v.1.15,2013-09-08 04:36:00,
2013-09-08 00:41:00,61.3,57.4,29.77,SW,235,0.0,0.0,87,0.00,,,0.00,0,Wunderground v.1.15,2013-09-08 04:41:00,
2013-09-08 00:47:00,61.2,57.0,29.77,WSW,240,0.0,0.0,86,0.00,,,0.00,0,Wunderground v.1.15,2013-09-08 04:47:00,
2013-09-08 00:53:00,61.1,56.9,29.76,SW,230,0.0,1.0,86,0.00,,,0.00,0,Wunderground v.1.15,2013-09-08 04:53:00,
2013-09-08 00:58:00,61.0,56.5,29.77,SW,222,0.0,1.0,85,0.00,,,0.00,0,Wunderground v.1.15,2013-09-08 04:58:00,
2013-09-08 01:03:00,61.0,56.1,29.77,SW,223,0.0,2.0,84,0.00,,,0.00,0,Wunderground v.1.15,2013-09-08 05:03:00,
2013-09-08 01:09:00,61.0,56.1,29.77,SW,229,0.0,2.0,84,0.00,,,0.00,0,Wunderground v.1.15,2013-09-08 05:09:00,
2013-09-08 01:15:00,61.0,55.8,29.77,SSW,201,0.0,3.0,83,0.00,,,0.00,0,Wunderground v.1.15,2013-09-08 05:15:00,
2013-09-08 01:21:00,61.1,56.2,29.77,SE,132,0.0,0.0,84,0.00,,,0.00,0,Wunderground v.1.15,2013-09-08 05:21:00,
2013-09-08 01:27:00,61.1,56.2,29.76,SE,136,0.0,1.0,84,0.00,,,0.00,0,Wunderground v.1.15,2013-09-08 05:27:00,
2013-09-08 01:33:00,61.1,55.9,29.76,SE,136,0.0,0.0,83,0.00,,,0.00,0,Wunderground v.1.15,2013-09-08 05:33:00,
2013-09-08 01:38:00,61.2,56.3,29.76,SE,136,0.0,0.0,84,0.00,,,0.00,0,Wunderground v.1.15,2013-09-08 05:38:00,
2013-09-08 01:43:00,61.2,56.3,29.76,SE,136,0.0,0.0,84,0.00,,,0.00,0,Wunderground v.1.15,2013-09-08 05:43:00,
2013-09-08 01:49:00,61.2,56.7,29.76,SE,136,0.0,0.0,85,0.00,,,0.00,0,Wunderground v.1.15,2013-09-08 05:49:00,
2013-09-08 01:54:00,61.1,56.6,29.76,SE,136,0.0,0.0,85,0.00,,,0.00,0,Wunderground v.1.15,2013-09-08 05:54:00,
2013-09-08 01:59:00,61.1,56.6,29.76,SW,226,0.0,2.0,85,0.00,,,0.00,0,Wunderground v.1.15,2013-09-08 05:59:00,
2013-09-08 02:04:00,61.0,56.1,29.75,SW,223,0.0,0.0,84,0.00,,,0.00,0,Wunderground v.1.15,2013-09-08 06:04:00,
2013-09-08 02:10:00,61.1,56.6,29.75,West,279,0.0,0.0,85,0.00,,,0.00,0,Wunderground v.1.15,2013-09-08 06:10:00,
2013-09-08 02:16:00,61.1,56.6,29.74,West,279,0.0,0.0,85,0.00,,,0.00,0,Wunderground v.1.15,2013-09-08 06:16:00,
2013-09-08 02:22:00,61.0,56.5,29.74,West,278,0.0,0.0,85,0.00,,,0.00,0,Wunderground v.1.15,2013-09-08 06:22:00,
2013-09-08 02:27:00,61.0,56.5,29.74,SSE,159,0.0,0.0,85,0.00,,,0.00,0,Wunderground v.1.15,2013-09-08 06:27:00,
2013-09-08 02:33:00,61.0,56.8,29.75,SSE,159,0.0,0.0,86,0.00,,,0.00,0,Wunderground v.1.15,2013-09-08 06:33:00,
2013-09-08 02:39:00,60.9,56.4,29.74,SSE,159,0.0,1.0,85,0.00,,,0.00,0,Wunderground v.1.15,2013-09-08 06:39:00,
2013-09-08 02:44:00,60.8,56.3,29.74,SSE,166,0.0,1.0,85,0.00,,,0.00,0,Wunderground v.1.15,2013-09-08 06:44:00,
2013-09-08 02:50:00,60.7,56.2,29.74,South,173,0.0,0.0,85,0.00,,,0.00,0,Wunderground v.1.15,2013-09-08 06:50:00,
2013-09-08 02:56:00,60.7,56.2,29.74,South,173,0.0,1.0,85,0.00,,,0.00,0,Wunderground v.1.15,2013-09-08 06:56:00,
2013-09-08 03:01:00,60.7,56.2,29.74,South,174,0.0,1.0,85,0.00,,,0.00,0,Wunderground v.1.15,2013-09-08 07:01:00,
2013-09-08 03:06:00,60.7,56.2,29.74,South,175,0.0,1.0,85,0.00,,,0.00,0,Wunderground v.1.15,2013-09-08 07:06:00,
2013-09-08 03:11:00,60.7,56.5,29.74,South,175,0.0,0.0,86,0.00,,,0.00,0,Wunderground v.1.15,2013-09-08 07:11:00,
2013-09-08 03:16:00,60.7,56.2,29.73,South,189,0.0,0.0,85,0.00,,,0.00,0,Wunderground v.1.15,2013-09-08 07:16:00,
2013-09-08 03:21:00,60.8,56.6,29.73,South,189,0.0,0.0,86,0.00,,,0.00,0,Wunderground v.1.15,2013-09-08 07:21:00,
2013-09-08 03:27:00,60.7,56.5,29.73,South,189,0.0,0.0,86,0.00,,,0.00,0,Wunderground v.1.15,2013-09-08 07:27:00,
2013-09-08 03:33:00,60.7,56.5,29.73,NW,321,0.0,0.0,86,0.00,,,0.00,0,Wunderground v.1.15,2013-09-08 07:33:00,
2013-09-08 03:39:00,60.6,56.4,29.73,SSW,210,0.0,2.0,86,0.00,,,0.01,0,Wunderground v.1.15,2013-09-08 07:39:00,
2013-09-08 03:45:00,60.4,56.5,29.73,SSE,167,1.0,5.0,87,0.00,,,0.01,0,Wunderground v.1.15,2013-09-08 07:45:00,
2013-09-08 03:51:00,60.0,56.7,29.72,WSW,250,2.0,6.0,89,0.05,,,0.02,0,Wunderground v.1.15,2013-09-08 07:51:00,
2013-09-08 03:57:00,59.7,56.8,29.72,SSW,202,1.0,6.0,90,0.05,,,0.02,0,Wunderground v.1.15,2013-09-08 07:57:00,
2013-09-08 04:02:00,59.5,56.9,29.72,SW,214,1.0,1.0,91,0.05,,,0.02,0,Wunderground v.1.15,2013-09-08 08:02:00,
2013-09-08 04:07:00,59.3,56.7,29.72,SSW,211,1.0,1.0,91,0.00,,,0.02,0,Wunderground v.1.15,2013-09-08 08:07:00,
2013-09-08 04:12:00,59.2,56.6,29.72,SSW,211,0.0,0.0,91,0.00,,,0.02,0,Wunderground v.1.15,2013-09-08 08:12:00,
2013-09-08 04:18:00,59.1,56.8,29.71,ENE,58,0.0,1.0,92,0.00,,,0.02,0,Wunderground v.1.15,2013-09-08 08:18:00,
2013-09-08 04:23:00,59.0,56.7,29.71,WSW,240,0.0,2.0,92,0.16,,,0.04,0,Wunderground v.1.15,2013-09-08 08:23:00,
2013-09-08 04:28:00,58.9,56.9,29.72,WSW,240,0.0,2.0,93,0.07,,,0.04,0,Wunderground v.1.15,2013-09-08 08:28:00,
2013-09-08 04:33:00,58.8,56.8,29.72,SW,231,0.0,0.0,93,0.07,,,0.05,0,Wunderground v.1.15,2013-09-08 08:33:00,
2013-09-08 04:38:00,58.7,57.0,29.72,SW,231,0.0,0.0,94,0.06,,,0.05,0,Wunderground v.1.15,2013-09-08 08:38:00,
2013-09-08 04:44:00,58.5,56.5,29.72,SW,231,0.0,1.0,93,0.04,,,0.05,0,Wunderground v.1.15,2013-09-08 08:44:00,
2013-09-08 04:50:00,58.5,56.8,29.72,WSW,250,0.0,0.0,94,0.00,,,0.05,0,Wunderground v.1.15,2013-09-08 08:50:00,
2013-09-08 04:56:00,58.4,56.7,29.72,WSW,250,0.0,0.0,94,0.00,,,0.05,0,Wunderground v.1.15,2013-09-08 08:56:00,
2013-09-08 05:02:00,58.3,56.6,29.72,South,169,0.0,0.0,94,0.00,,,0.05,0,Wunderground v.1.15,2013-09-08 09:02:00,
2013-09-08 05:07:00,58.3,56.6,29.72,South,169,0.0,0.0,94,0.00,,,0.05,0,Wunderground v.1.15,2013-09-08 09:07:00,
2013-09-08 05:13:00,58.3,56.9,29.71,SSE,168,0.0,0.0,95,0.00,,,0.05,0,Wunderground v.1.15,2013-09-08 09:13:00,
2013-09-08 05:18:00,58.2,56.8,29.71,South,169,0.0,2.0,95,0.00,,,0.05,0,Wunderground v.1.15,2013-09-08 09:18:00,
2013-09-08 05:23:00,58.2,56.8,29.71,South,169,0.0,0.0,95,0.00,,,0.05,0,Wunderground v.1.15,2013-09-08 09:23:00,
2013-09-08 05:29:00,58.1,56.7,29.71,South,175,0.0,1.0,95,0.00,,,0.05,0,Wunderground v.1.15,2013-09-08 09:29:00,
2013-09-08 05:35:00,58.1,56.7,29.71,South,175,0.0,1.0,95,0.00,,,0.05,0,Wunderground v.1.15,2013-09-08 09:35:00,
2013-09-08 05:41:00,58.1,56.7,29.71,South,173,0.0,0.0,95,0.00,,,0.05,0,Wunderground v.1.15,2013-09-08 09:41:00,
2013-09-08 05:46:00,58.1,56.7,29.72,South,173,0.0,0.0,95,0.00,,,0.05,0,Wunderground v.1.15,2013-09-08 09:46:00,
2013-09-08 05:52:00,58.1,57.0,29.72,South,173,0.0,0.0,96,0.00,,,0.05,0,Wunderground v.1.15,2013-09-08 09:52:00,
2013-09-08 05:57:00,58.1,57.0,29.72,South,173,0.0,0.0,96,0.00,,,0.05,0,Wunderground v.1.15,2013-09-08 09:57:00,
2013-09-08 06:02:00,58.1,57.0,29.72,South,173,0.0,0.0,96,0.00,,,0.05,0,Wunderground v.1.15,2013-09-08 10:02:00,
2013-09-08 06:07:00,58.1,57.0,29.73,South,173,0.0,0.0,96,0.00,,,0.06,0,Wunderground v.1.15,2013-09-08 10:07:00,
2013-09-08 06:12:00,58.1,57.0,29.73,SW,221,0.0,0.0,96,0.42,,,0.10,0,Wunderground v.1.15,2013-09-08 10:12:00,
2013-09-08 06:17:00,58.0,56.9,29.72,WNW,286,0.0,0.0,96,0.48,,,0.14,0,Wunderground v.1.15,2013-09-08 10:17:00,
2013-09-08 06:22:00,58.0,56.9,29.72,SW,215,0.0,2.0,96,0.22,,,0.16,0,Wunderground v.1.15,2013-09-08 10:22:00,
2013-09-08 06:28:00,57.9,56.8,29.73,SSE,150,0.0,3.0,96,0.14,,,0.17,0,Wunderground v.1.15,2013-09-08 10:28:00,
2013-09-08 06:33:00,57.8,56.7,29.72,South,170,0.0,2.0,96,0.13,,,0.18,0,Wunderground v.1.15,2013-09-08 10:33:00,
2013-09-08 06:39:00,57.8,56.7,29.72,SSW,208,1.0,2.0,96,0.06,,,0.18,0,Wunderground v.1.15,2013-09-08 10:39:00,
2013-09-08 06:44:00,57.8,56.7,29.71,SSW,197,0.0,1.0,96,0.04,,,0.18,0,Wunderground v.1.15,2013-09-08 10:44:00,
2013-09-08 06:49:00,57.8,56.7,29.72,SSW,197,0.0,1.0,96,0.00,,,0.18,0,Wunderground v.1.15,2013-09-08 10:49:00,
2013-09-08 06:54:00,57.8,57.0,29.72,SSW,197,0.0,0.0,97,0.00,,,0.19,0,Wunderground v.1.15,2013-09-08 10:54:00,
2013-09-08 07:00:00,57.8,57.0,29.71,SSW,197,0.0,0.0,97,0.00,,,0.19,5,Wunderground v.1.15,2013-09-08 11:00:00,
2013-09-08 07:06:00,57.8,57.0,29.71,SSW,197,0.0,0.0,97,0.00,,,0.19,14,Wunderground v.1.15,2013-09-08 11:06:00,
2013-09-08 07:11:00,57.8,57.0,29.71,SSW,197,0.0,0.0,97,0.00,,,0.19,33,Wunderground v.1.15,2013-09-08 11:11:00,
2013-09-08 07:16:00,57.8,57.0,29.70,SSW,197,0.0,0.0,97,0.00,,,0.19,33,Wunderground v.1.15,2013-09-08 11:16:00,
2013-09-08 07:21:00,57.9,57.1,29.70,SSW,197,0.0,0.0,97,0.00,,,0.19,33,Wunderground v.1.15,2013-09-08 11:21:00,
2013-09-08 07:26:00,58.0,57.2,29.70,SSW,197,0.0,1.0,97,0.00,,,0.19,37,Wunderground v.1.15,2013-09-08 11:26:00,
2013-09-08 07:31:00,58.0,57.2,29.70,SSW,197,0.0,0.0,97,0.00,,,0.19,49,Wunderground v.1.15,2013-09-08 11:31:00,
2013-09-08 07:37:00,58.0,57.2,29.70,SSW,203,0.0,1.0,97,0.00,,,0.19,32,Wunderground v.1.15,2013-09-08 11:37:00,
2013-09-08 07:42:00,58.1,57.3,29.70,SSW,203,0.0,1.0,97,0.00,,,0.19,23,Wunderground v.1.15,2013-09-08 11:42:00,
2013-09-08 07:48:00,58.1,57.3,29.70,SSW,203,0.0,1.0,97,0.00,,,0.19,44,Wunderground v.1.15,2013-09-08 11:48:00,
2013-09-08 07:53:00,58.2,57.4,29.70,SSW,203,0.0,0.0,97,0.00,,,0.19,77,Wunderground v.1.15,2013-09-08 11:53:00,
2013-09-08 07:58:00,58.3,57.5,29.70,SSW,203,0.0,0.0,97,0.00,,,0.19,102,Wunderground v.1.15,2013-09-08 11:58:00,
2013-09-08 08:03:00,58.4,57.6,29.69,SSW,203,0.0,0.0,97,0.00,,,0.19,144,Wunderground v.1.15,2013-09-08 12:03:00,
2013-09-08 08:08:00,58.8,58.2,29.69,SSW,203,0.0,0.0,98,0.00,,,0.19,141,Wunderground v.1.15,2013-09-08 12:08:00,
2013-09-08 08:13:00,58.9,58.1,29.69,SSW,203,0.0,0.0,97,0.00,,,0.19,169,Wunderground v.1.15,2013-09-08 12:13:00,
2013-09-08 08:19:00,59.2,58.6,29.69,WSW,249,0.0,1.0,98,0.00,,,0.19,186,Wunderground v.1.15,2013-09-08 12:19:00,
2013-09-08 08:24:00,59.7,59.1,29.69,WSW,239,0.0,0.0,98,0.00,,,0.19,199,Wunderground v.1.15,2013-09-08 12:24:00,
2013-09-08 08:29:00,59.7,59.1,29.69,SSW,209,0.0,1.0,98,0.00,,,0.19,146,Wunderground v.1.15,2013-09-08 12:29:00,
2013-09-08 08:34:00,59.8,59.2,29.69,South,180,1.0,1.0,98,0.00,,,0.19,144,Wunderground v.1.15,2013-09-08 12:34:00,
2013-09-08 08:40:00,59.9,59.0,29.69,SW,226,1.0,1.0,97,0.00,,,0.19,77,Wunderground v.1.15,2013-09-08 12:40:00,
2013-09-08 08:45:00,59.9,59.0,29.69,SSE,165,1.0,1.0,97,0.00,,,0.19,98,Wunderground v.1.15,2013-09-08 12:45:00,
2013-09-08 08:51:00,59.9,59.0,29.69,SSW,211,0.0,0.0,97,0.00,,,0.19,172,Wunderground v.1.15,2013-09-08 12:51:00,
2013-09-08 08:56:00,60.0,59.1,29.69,West,260,0.0,1.0,97,0.00,,,0.19,58,Wunderground v.1.15,2013-09-08 12:56:00,
2013-09-08 09:02:00,60.0,59.1,29.70,WSW,240,0.0,0.0,97,0.00,,,0.19,25,Wunderground v.1.15,2013-09-08 13:02:00,
2013-09-08 09:07:00,60.0,59.1,29.70,SW,232,0.0,3.0,97,0.00,,,0.19,14,Wunderground v.1.15,2013-09-08 13:07:00,
2013-09-08 09:13:00,59.9,59.0,29.70,SSW,213,0.0,0.0,97,0.00,,,0.20,28,Wunderground v.1.15,2013-09-08 13:13:00,
2013-09-08 09:19:00,59.7,58.6,29.71,WNW,291,0.0,3.0,96,0.29,,,0.22,11,Wunderground v.1.15,2013-09-08 13:19:00,
2013-09-08 09:24:00,59.6,58.5,29.72,WSW,254,0.0,0.0,96,0.09,,,0.22,21,Wunderground v.1.15,2013-09-08 13:24:00,
2013-09-08 09:30:00,59.4,58.5,29.72,NW,311,0.0,0.0,97,0.82,,,0.29,32,Wunderground v.1.15,2013-09-08 13:30:00,
2013-09-08 09:36:00,59.2,58.1,29.71,West,260,2.0,5.0,96,0.21,,,0.32,33,Wunderground v.1.15,2013-09-08 13:36:00,
2013-09-08 09:41:00,59.2,58.3,29.71,SSW,211,2.0,2.0,97,0.25,,,0.34,26,Wunderground v.1.15,2013-09-08 13:41:00,
2013-09-08 09:46:00,59.1,58.2,29.71,NE,34,0.0,3.0,97,0.13,,,0.35,58,Wunderground v.1.15,2013-09-08 13:46:00,
2013-09-08 09:51:00,59.1,58.2,29.70,NW,311,1.0,1.0,97,0.09,,,0.36,90,Wunderground v.1.15,2013-09-08 13:51:00,
2013-09-08 09:56:00,59.2,58.3,29.71,NNW,329,1.0,6.0,97,0.08,,,0.36,135,Wunderground v.1.15,2013-09-08 13:56:00,
2013-09-08 10:02:00,59.3,58.4,29.70,NNW,331,1.0,1.0,97,0.07,,,0.37,176,Wunderground v.1.15,2013-09-08 14:02:00,
2013-09-08 10:07:00,59.6,59.0,29.70,WNW,298,1.0,2.0,98,0.06,,,0.37,195,Wunderground v.1.15,2013-09-08 14:07:00,
2013-09-08 10:13:00,59.7,59.1,29.70,NE,35,1.0,3.0,98,0.04,,,0.37,125,Wunderground v.1.15,2013-09-08 14:13:00,
2013-09-08 10:18:00,59.9,59.3,29.70,WNW,301,1.0,3.0,98,0.00,,,0.37,90,Wunderground v.1.15,2013-09-08 14:18:00,
2013-09-08 10:24:00,60.0,59.4,29.70,WNW,289,1.0,4.0,98,0.00,,,0.37,144,Wunderground v.1.15,2013-09-08 14:24:00,
2013-09-08 10:29:00,60.1,59.5,29.70,ENE,63,1.0,4.0,98,0.00,,,0.37,179,Wunderground v.1.15,2013-09-08 14:29:00,
2013-09-08 10:34:00,60.2,59.6,29.70,West,270,1.0,4.0,98,0.00,,,0.37,148,Wunderground v.1.15,2013-09-08 14:34:00,
2013-09-08 10:40:00,60.3,59.7,29.70,NNW,335,2.0,2.0,98,0.00,,,0.37,174,Wunderground v.1.15,2013-09-08 14:40:00,
2013-09-08 10:45:00,60.4,59.8,29.70,West,280,2.0,5.0,98,0.00,,,0.37,302,Wunderground v.1.15,2013-09-08 14:45:00,
2013-09-08 10:51:00,60.7,60.1,29.71,ENE,66,1.0,2.0,98,0.00,,,0.37,114,Wunderground v.1.15,2013-09-08 14:51:00,
2013-09-08 10:57:00,60.5,59.6,29.71,West,280,2.0,6.0,97,0.00,,,0.37,67,Wunderground v.1.15,2013-09-08 14:57:00,
2013-09-08 11:02:00,60.2,59.3,29.71,WNW,284,2.0,2.0,97,0.00,,,0.37,44,Wunderground v.1.15,2013-09-08 15:02:00,
2013-09-08 11:07:00,59.8,58.7,29.72,NE,55,2.0,9.0,96,0.00,,,0.37,30,Wunderground v.1.15,2013-09-08 15:07:00,
2013-09-08 11:13:00,59.5,58.4,29.73,NNE,26,3.0,8.0,96,0.00,,,0.37,81,Wunderground v.1.15,2013-09-08 15:13:00,
2013-09-08 11:19:00,59.1,58.0,29.73,NE,36,3.0,8.0,96,0.00,,,0.37,105,Wunderground v.1.15,2013-09-08 15:19:00,
2013-09-08 11:25:00,58.5,56.8,29.73,WNW,297,5.0,9.0,94,0.00,,,0.37,127,Wunderground v.1.15,2013-09-08 15:25:00,
2013-09-08 11:30:00,58.4,56.7,29.73,NNE,12,6.0,6.0,94,0.00,,,0.37,107,Wunderground v.1.15,2013-09-08 15:30:00,
2013-09-08 11:35:00,58.2,56.2,29.72,North,5,4.0,12.0,93,0.00,,,0.37,172,Wunderground v.1.15,2013-09-08 15:35:00,
2013-09-08 11:40:00,58.2,56.2,29.73,NNE,17,5.0,5.0,93,0.00,,,0.37,214,Wunderground v.1.15,2013-09-08 15:40:00,
2013-09-08 11:45:00,58.3,56.3,29.73,NNW,348,4.0,8.0,93,0.00,,,0.37,197,Wunderground v.1.15,2013-09-08 15:45:00,
2013-09-08 11:51:00,58.4,56.1,29.73,North,350,4.0,8.0,92,0.00,,,0.37,213,Wunderground v.1.15,2013-09-08 15:51:00,
2013-09-08 11:57:00,58.6,56.0,29.73,North,5,4.0,9.0,91,0.00,,,0.37,309,Wunderground v.1.15,2013-09-08 15:57:00,
2013-09-08 12:02:00,58.9,56.3,29.73,WNW,289,3.0,3.0,91,0.00,,,0.37,439,Wunderground v.1.15,2013-09-08 16:02:00,
2013-09-08 12:07:00,59.6,57.3,29.73,West,276,2.0,5.0,92,0.00,,,0.37,990,Wunderground v.1.15,2013-09-08 16:07:00,
2013-09-08 12:13:00,60.4,57.8,29.73,West,264,2.0,4.0,91,0.00,,,0.37,1005,Wunderground v.1.15,2013-09-08 16:13:00,
2013-09-08 12:18:00,61.4,57.8,29.72,NE,36,2.0,4.0,88,0.00,,,0.37,468,Wunderground v.1.15,2013-09-08 16:18:00,
2013-09-08 12:24:00,61.6,56.7,29.73,North,5,3.0,4.0,84,0.00,,,0.37,369,Wunderground v.1.15,2013-09-08 16:24:00,
2013-09-08 12:29:00,61.5,56.3,29.73,NNE,22,4.0,7.0,83,0.00,,,0.37,274,Wunderground v.1.15,2013-09-08 16:29:00,
2013-09-08 12:34:00,61.9,55.3,29.73,NNE,18,3.0,4.0,79,0.00,,,0.37,932,Wunderground v.1.15,2013-09-08 16:34:00,
2013-09-08 12:39:00,62.9,55.6,29.73,NW,317,3.0,8.0,77,0.00,,,0.37,933,Wunderground v.1.15,2013-09-08 16:39:00,
2013-09-08 12:45:00,63.2,56.2,29.73,NW,304,4.0,7.0,78,0.00,,,0.37,269,Wunderground v.1.15,2013-09-08 16:45:00,
2013-09-08 12:51:00,63.4,53.8,29.73,SW,214,4.0,7.0,71,0.00,,,0.37,805,Wunderground v.1.15,2013-09-08 16:51:00,
2013-09-08 12:56:00,63.9,54.3,29.73,NW,304,5.0,12.0,71,0.00,,,0.37,803,Wunderground v.1.15,2013-09-08 16:56:00,
2013-09-08 13:02:00,64.2,53.8,29.74,NNW,347,5.0,8.0,69,0.00,,,0.37,849,Wunderground v.1.15,2013-09-08 17:02:00,
2013-09-08 13:08:00,64.5,53.3,29.74,SW,224,5.0,10.0,67,0.00,,,0.37,921,Wunderground v.1.15,2013-09-08 17:08:00,
2013-09-08 13:14:00,65.1,53.5,29.74,NNW,341,4.0,6.0,66,0.00,,,0.37,933,Wunderground v.1.15,2013-09-08 17:14:00,
2013-09-08 13:19:00,65.2,50.5,29.75,NNE,16,4.0,11.0,59,0.00,,,0.37,919,Wunderground v.1.15,2013-09-08 17:19:00,
2013-09-08 13:24:00,64.1,48.1,29.75,NE,44,5.0,9.0,56,0.00,,,0.37,232,Wunderground v.1.15,2013-09-08 17:24:00,
2013-09-08 13:29:00,62.9,47.9,29.75,NW,313,6.0,9.0,58,0.00,,,0.37,188,Wunderground v.1.15,2013-09-08 17:29:00,
2013-09-08 13:35:00,63.2,49.5,29.75,NNW,344,4.0,9.0,61,0.00,,,0.37,933,Wunderground v.1.15,2013-09-08 17:35:00,
2013-09-08 13:40:00,63.5,47.0,29.75,NNE,19,4.0,4.0,55,0.00,,,0.37,229,Wunderground v.1.15,2013-09-08 17:40:00,
2013-09-08 13:45:00,64.3,48.3,29.75,NE,49,5.0,7.0,56,0.00,,,0.37,754,Wunderground v.1.15,2013-09-08 17:45:00,
2013-09-08 13:50:00,65.1,49.0,29.75,NNW,335,4.0,7.0,56,0.00,,,0.37,842,Wunderground v.1.15,2013-09-08 17:50:00,
2013-09-08 13:56:00,65.6,49.0,29.75,ENE,57,4.0,7.0,55,0.00,,,0.37,283,Wunderground v.1.15,2013-09-08 17:56:00,
2013-09-08 14:01:00,64.3,48.7,29.75,NW,317,3.0,15.0,57,0.00,,,0.37,195,Wunderground v.1.15,2013-09-08 18:01:00,
2013-09-08 14:07:00,63.4,48.8,29.75,NW,313,5.0,16.0,59,0.00,,,0.37,863,Wunderground v.1.15,2013-09-08 18:07:00,
2013-09-08 14:12:00,64.4,47.9,29.76,WNW,302,5.0,6.0,55,0.00,,,0.37,323,Wunderground v.1.15,2013-09-08 18:12:00,
2013-09-08 14:18:00,63.6,47.1,29.76,NNE,17,7.0,14.0,55,0.00,,,0.37,309,Wunderground v.1.15,2013-09-08 18:18:00,
2013-09-08 14:23:00,63.1,47.1,29.76,North,5,8.0,8.0,56,0.00,,,0.37,237,Wunderground v.1.15,2013-09-08 18:23:00,
2013-09-08 14:28:00,63.1,48.1,29.76,NNW,348,6.0,12.0,58,0.00,,,0.37,791,Wunderground v.1.15,2013-09-08 18:28:00,
2013-09-08 14:34:00,64.7,48.2,29.76,NNW,340,4.0,7.0,55,0.00,,,0.37,216,Wunderground v.1.15,2013-09-08 18:34:00,
2013-09-08 14:40:00,65.0,47.4,29.76,WNW,300,4.0,5.0,53,0.00,,,0.37,777,Wunderground v.1.15,2013-09-08 18:40:00,
2013-09-08 14:45:00,65.0,47.4,29.77,NNW,341,5.0,19.0,53,0.00,,,0.37,766,Wunderground v.1.15,2013-09-08 18:45:00,
2013-09-08 14:51:00,64.6,47.1,29.77,NW,321,7.0,19.0,53,0.00,,,0.37,744,Wunderground v.1.15,2013-09-08 18:51:00,
2013-09-08 14:56:00,64.0,45.5,29.77,WNW,297,9.0,19.0,51,0.00,,,0.37,777,Wunderground v.1.15,2013-09-08 18:56:00,
2013-09-08 15:01:00,63.9,46.4,29.77,NNW,339,9.0,9.0,53,0.00,,,0.37,747,Wunderground v.1.15,2013-09-08 19:01:00,
2013-09-08 15:06:00,64.3,47.3,29.78,North,5,6.0,14.0,54,0.00,,,0.37,568,Wunderground v.1.15,2013-09-08 19:06:00,
2013-09-08 15:12:00,63.2,45.3,29.78,North,355,6.0,8.0,52,0.00,,,0.37,149,Wunderground v.1.15,2013-09-08 19:12:00,
2013-09-08 15:18:00,62.5,45.6,29.78,North,355,6.0,12.0,54,0.00,,,0.37,601,Wunderground v.1.15,2013-09-08 19:18:00,
2013-09-08 15:23:00,63.5,47.0,29.78,NE,38,5.0,6.0,55,0.00,,,0.37,601,Wunderground v.1.15,2013-09-08 19:23:00,
2013-09-08 15:29:00,63.8,44.8,29.78,NE,38,5.0,7.0,50,0.00,,,0.37,608,Wunderground v.1.15,2013-09-08 19:29:00,
2013-09-08 15:34:00,63.5,45.6,29.78,NNE,22,6.0,9.0,52,0.00,,,0.37,580,Wunderground v.1.15,2013-09-08 19:34:00,
2013-09-08 15:39:00,63.8,45.8,29.79,North,360,6.0,13.0,52,0.00,,,0.37,555,Wunderground v.1.15,2013-09-08 19:39:00,
2013-09-08 15:45:00,63.6,44.6,29.79,NE,51,6.0,17.0,50,0.00,,,0.37,536,Wunderground v.1.15,2013-09-08 19:45:00,
2013-09-08 15:50:00,63.0,44.1,29.80,NW,317,7.0,7.0,50,0.00,,,0.37,90,Wunderground v.1.15,2013-09-08 19:50:00,
2013-09-08 15:56:00,62.3,43.4,29.80,WNW,299,7.0,9.0,50,0.00,,,0.37,118,Wunderground v.1.15,2013-09-08 19:56:00,
2013-09-08 16:01:00,61.5,44.2,29.80,North,355,5.0,6.0,53,0.00,,,0.37,84,Wunderground v.1.15,2013-09-08 20:01:00,
2013-09-08 16:06:00,61.4,44.1,29.80,NW,317,5.0,13.0,53,0.00,,,0.37,466,Wunderground v.1.15,2013-09-08 20:06:00,
2013-09-08 16:12:00,62.2,43.8,29.80,WNW,283,7.0,7.0,51,0.00,,,0.37,476,Wunderground v.1.15,2013-09-08 20:12:00,
2013-09-08 16:18:00,62.8,44.4,29.81,NW,326,6.0,10.0,51,0.00,,,0.37,469,Wunderground v.1.15,2013-09-08 20:18:00,
2013-09-08 16:23:00,63.3,45.4,29.81,NNW,328,5.0,5.0,52,0.00,,,0.37,504,Wunderground v.1.15,2013-09-08 20:23:00,
2013-09-08 16:29:00,63.7,44.7,29.81,NW,323,4.0,10.0,50,0.00,,,0.37,499,Wunderground v.1.15,2013-09-08 20:29:00,
2013-09-08 16:35:00,63.3,43.3,29.82,NW,317,5.0,9.0,48,0.00,,,0.37,461,Wunderground v.1.15,2013-09-08 20:35:00,
2013-09-08 16:40:00,63.1,44.2,29.82,NNE,30,6.0,6.0,50,0.00,,,0.37,503,Wunderground v.1.15,2013-09-08 20:40:00,
2013-09-08 16:45:00,63.6,45.1,29.82,NW,311,5.0,6.0,51,0.00,,,0.37,494,Wunderground v.1.15,2013-09-08 20:45:00,
2013-09-08 16:50:00,63.7,44.7,29.82,ENE,59,4.0,4.0,50,0.00,,,0.37,432,Wunderground v.1.15,2013-09-08 20:50:00,
2013-09-08 16:55:00,63.4,43.9,29.82,NW,311,4.0,6.0,49,0.00,,,0.37,397,Wunderground v.1.15,2013-09-08 20:55:00,
2013-09-08 17:01:00,63.1,44.2,29.83,NE,35,4.0,4.0,50,0.00,,,0.37,373,Wunderground v.1.15,2013-09-08 21:01:00,
2013-09-08 17:06:00,63.2,45.3,29.83,NW,325,3.0,12.0,52,0.00,,,0.37,329,Wunderground v.1.15,2013-09-08 21:06:00,
2013-09-08 17:12:00,62.3,44.9,29.83,NNW,342,4.0,7.0,53,0.00,,,0.37,315,Wunderground v.1.15,2013-09-08 21:12:00,
2013-09-08 17:18:00,61.9,45.1,29.84,NE,49,5.0,7.0,54,0.00,,,0.37,274,Wunderground v.1.15,2013-09-08 21:18:00,
2013-09-08 17:23:00,61.5,44.7,29.84,North,355,5.0,8.0,54,0.00,,,0.37,237,Wunderground v.1.15,2013-09-08 21:23:00,
2013-09-08 17:29:00,61.3,44.0,29.84,NNW,327,5.0,10.0,53,0.00,,,0.37,40,Wunderground v.1.15,2013-09-08 21:29:00,
2013-09-08 17:34:00,61.1,44.8,29.84,NNW,331,4.0,5.0,55,0.00,,,0.37,40,Wunderground v.1.15,2013-09-08 21:34:00,
2013-09-08 17:39:00,60.8,44.0,29.85,NNW,340,3.0,9.0,54,0.00,,,0.37,32,Wunderground v.1.15,2013-09-08 21:39:00,
2013-09-08 17:45:00,60.3,43.6,29.85,WNW,303,3.0,3.0,54,0.00,,,0.37,30,Wunderground v.1.15,2013-09-08 21:45:00,
2013-09-08 17:50:00,59.7,44.0,29.85,NNE,23,2.0,2.0,56,0.00,,,0.37,28,Wunderground v.1.15,2013-09-08 21:50:00,
2013-09-08 17:56:00,59.4,43.2,29.86,NW,306,3.0,5.0,55,0.00,,,0.37,28,Wunderground v.1.15,2013-09-08 21:56:00,
2013-09-08 18:01:00,59.2,44.0,29.86,North,11,3.0,4.0,57,0.00,,,0.37,28,Wunderground v.1.15,2013-09-08 22:01:00,
2013-09-08 18:07:00,59.1,43.4,29.86,NNW,348,3.0,5.0,56,0.00,,,0.37,25,Wunderground v.1.15,2013-09-08 22:07:00,
2013-09-08 18:12:00,59.2,44.0,29.86,North,355,3.0,3.0,57,0.00,,,0.37,26,Wunderground v.1.15,2013-09-08 22:12:00,
2013-09-08 18:17:00,59.1,43.4,29.86,NNW,340,4.0,6.0,56,0.00,,,0.37,25,Wunderground v.1.15,2013-09-08 22:17:00,
2013-09-08 18:22:00,59.1,43.9,29.86,NNW,327,4.0,4.0,57,0.00,,,0.37,21,Wunderground v.1.15,2013-09-08 22:22:00,
2013-09-08 18:28:00,58.9,43.7,29.87,NNW,343,4.0,5.0,57,0.00,,,0.37,19,Wunderground v.1.15,2013-09-08 22:28:00,
2013-09-08 18:34:00,58.7,43.5,29.87,North,355,4.0,6.0,57,0.00,,,0.37,18,Wunderground v.1.15,2013-09-08 22:34:00,
2013-09-08 18:39:00,58.3,43.6,29.87,NNW,346,3.0,7.0,58,0.00,,,0.37,14,Wunderground v.1.15,2013-09-08 22:39:00,
2013-09-08 18:45:00,58.0,43.7,29.88,North,5,3.0,6.0,59,0.00,,,0.37,12,Wunderground v.1.15,2013-09-08 22:45:00,
2013-09-08 18:50:00,57.7,43.5,29.88,North,355,3.0,3.0,59,0.00,,,0.37,9,Wunderground v.1.15,2013-09-08 22:50:00,
2013-09-08 18:55:00,57.4,43.2,29.89,NNW,336,3.0,4.0,59,0.00,,,0.37,7,Wunderground v.1.15,2013-09-08 22:55:00,
2013-09-08 19:01:00,57.1,42.9,29.89,North,355,3.0,3.0,59,0.00,,,0.37,0,Wunderground v.1.15,2013-09-08 23:01:00,
2013-09-08 19:07:00,56.8,42.6,29.90,NNW,336,2.0,5.0,59,0.00,,,0.37,0,Wunderground v.1.15,2013-09-08 23:07:00,
2013-09-08 19:12:00,56.4,43.1,29.90,NNW,339,1.0,2.0,61,0.00,,,0.37,0,Wunderground v.1.15,2013-09-08 23:12:00,
2013-09-08 19:17:00,56.0,43.2,29.91,North,360,1.0,2.0,62,0.00,,,0.37,0,Wunderground v.1.15,2013-09-08 23:17:00,
2013-09-08 19:23:00,55.6,43.6,29.91,North,360,0.0,0.0,64,0.00,,,0.37,0,Wunderground v.1.15,2013-09-08 23:23:00,
2013-09-08 19:28:00,55.3,44.1,29.91,North,350,0.0,0.0,66,0.00,,,0.37,0,Wunderground v.1.15,2013-09-08 23:28:00,
2013-09-08 19:34:00,55.1,43.5,29.92,NNW,337,1.0,5.0,65,0.00,,,0.37,0,Wunderground v.1.15,2013-09-08 23:34:00,
2013-09-08 19:39:00,55.1,43.9,29.92,NW,306,2.0,5.0,66,0.00,,,0.37,0,Wunderground v.1.15,2013-09-08 23:39:00,
2013-09-08 19:44:00,55.1,43.5,29.92,NNW,328,1.0,2.0,65,0.00,,,0.37,0,Wunderground v.1.15,2013-09-08 23:44:00,
2013-09-08 19:49:00,55.1,43.5,29.93,North,5,1.0,3.0,65,0.00,,,0.37,0,Wunderground v.1.15,2013-09-08 23:49:00,
2013-09-08 19:55:00,55.3,43.3,29.94,North,355,2.0,3.0,64,0.00,,,0.37,0,Wunderground v.1.15,2013-09-08 23:55:00,
2013-09-08 20:01:00,55.3,42.5,29.94,NW,306,2.0,4.0,62,0.00,,,0.37,0,Wunderground v.1.15,2013-09-09 00:01:00,
2013-09-08 20:07:00,55.3,42.5,29.95,WNW,297,2.0,4.0,62,0.00,,,0.37,0,Wunderground v.1.15,2013-09-09 00:07:00,
2013-09-08 20:13:00,55.1,42.7,29.95,WNW,292,1.0,2.0,63,0.00,,,0.37,0,Wunderground v.1.15,2013-09-09 00:13:00,
2013-09-08 20:18:00,54.9,42.9,29.96,NNW,348,2.0,3.0,64,0.00,,,0.37,0,Wunderground v.1.15,2013-09-09 00:18:00,
2013-09-08 20:24:00,54.6,42.3,29.97,NNE,12,3.0,4.0,63,0.00,,,0.37,0,Wunderground v.1.15,2013-09-09 00:24:00,
2013-09-08 20:29:00,54.4,42.1,29.97,NW,326,3.0,4.0,63,0.00,,,0.37,0,Wunderground v.1.15,2013-09-09 00:29:00,
2013-09-08 20:35:00,54.2,41.9,29.97,NNW,331,2.0,3.0,63,0.00,,,0.37,0,Wunderground v.1.15,2013-09-09 00:35:00,
2013-09-08 20:41:00,53.9,42.0,29.97,NNW,338,1.0,2.0,64,0.00,,,0.37,0,Wunderground v.1.15,2013-09-09 00:41:00,
2013-09-08 20:47:00,53.7,41.8,29.98,NNE,13,1.0,2.0,64,0.00,,,0.37,0,Wunderground v.1.15,2013-09-09 00:47:00,
2013-09-08 20:52:00,53.5,42.0,29.98,NNE,13,0.0,0.0,65,0.00,,,0.37,0,Wunderground v.1.15,2013-09-09 00:52:00,
2013-09-08 20:58:00,53.0,41.5,29.98,NNE,13,0.0,1.0,65,0.00,,,0.37,0,Wunderground v.1.15,2013-09-09 00:58:00,
2013-09-08 21:03:00,52.7,41.3,29.98,North,355,0.0,2.0,65,0.00,,,0.37,0,Wunderground v.1.15,2013-09-09 01:03:00,
2013-09-08 21:09:00,52.4,41.4,29.99,North,355,0.0,2.0,66,0.00,,,0.37,0,Wunderground v.1.15,2013-09-09 01:09:00,
2013-09-08 21:14:00,52.2,41.2,29.99,North,355,0.0,0.0,66,0.00,,,0.37,0,Wunderground v.1.15,2013-09-09 01:14:00,
2013-09-08 21:19:00,52.0,42.1,29.99,NNW,348,0.0,0.0,69,0.00,,,0.37,0,Wunderground v.1.15,2013-09-09 01:19:00,
2013-09-08 21:25:00,51.8,43.1,29.99,NNW,348,0.0,0.0,72,0.00,,,0.37,0,Wunderground v.1.15,2013-09-09 01:25:00,
2013-09-08 21:31:00,51.6,43.6,29.99,NNW,348,0.0,0.0,74,0.00,,,0.37,0,Wunderground v.1.15,2013-09-09 01:31:00,
2013-09-08 21:36:00,51.2,43.9,29.99,NNW,348,0.0,0.0,76,0.00,,,0.37,0,Wunderground v.1.15,2013-09-09 01:36:00,
2013-09-08 21:41:00,50.9,43.6,30.00,NNW,348,0.0,0.0,76,0.00,,,0.37,0,Wunderground v.1.15,2013-09-09 01:41:00,
2013-09-08 21:46:00,50.5,43.6,30.00,NNW,348,0.0,0.0,77,0.00,,,0.37,0,Wunderground v.1.15,2013-09-09 01:46:00,
2013-09-08 21:51:00,50.1,43.2,30.00,NNW,348,0.0,0.0,77,0.00,,,0.37,0,Wunderground v.1.15,2013-09-09 01:51:00,
2013-09-08 21:57:00,49.7,42.8,30.01,NNW,348,0.0,0.0,77,0.00,,,0.37,0,Wunderground v.1.15,2013-09-09 01:57:00,
2013-09-08 22:03:00,49.3,42.7,30.01,NNW,348,0.0,0.0,78,0.00,,,0.37,0,Wunderground v.1.15,2013-09-09 02:03:00,
2013-09-08 22:09:00,48.7,42.8,30.01,NNW,348,0.0,0.0,80,0.00,,,0.37,0,Wunderground v.1.15,2013-09-09 02:09:00,
2013-09-08 22:14:00,48.2,42.6,30.01,North,350,0.0,0.0,81,0.00,,,0.37,0,Wunderground v.1.15,2013-09-09 02:14:00,
2013-09-08 22:20:00,47.8,42.6,30.01,North,351,0.0,0.0,82,0.00,,,0.37,0,Wunderground v.1.15,2013-09-09 02:20:00,
2013-09-08 22:26:00,47.4,42.5,30.01,North,351,0.0,0.0,83,0.00,,,0.37,0,Wunderground v.1.15,2013-09-09 02:26:00,
2013-09-08 22:31:00,47.2,42.3,30.02,North,351,0.0,0.0,83,0.00,,,0.37,0,Wunderground v.1.15,2013-09-09 02:31:00,
2013-09-08 22:36:00,47.1,41.9,30.02,North,351,0.0,0.0,82,0.00,,,0.37,0,Wunderground v.1.15,2013-09-09 02:36:00,
2013-09-08 22:42:00,47.0,41.8,30.02,North,351,0.0,0.0,82,0.00,,,0.37,0,Wunderground v.1.15,2013-09-09 02:42:00,
2013-09-08 22:47:00,47.0,41.8,30.03,North,351,0.0,0.0,82,0.00,,,0.37,0,Wunderground v.1.15,2013-09-09 02:47:00,
2013-09-08 22:52:00,46.9,41.4,30.03,North,351,0.0,0.0,81,0.00,,,0.37,0,Wunderground v.1.15,2013-09-09 02:52:00,
2013-09-08 22:58:00,47.0,41.5,30.03,North,351,0.0,0.0,81,0.00,,,0.37,0,Wunderground v.1.15,2013-09-09 02:58:00,
2013-09-08 23:04:00,47.1,41.2,30.03,North,351,0.0,0.0,80,0.00,,,0.37,0,Wunderground v.1.15,2013-09-09 03:04:00,
2013-09-08 23:10:00,47.1,41.6,30.04,North,351,0.0,0.0,81,0.00,,,0.37,0,Wunderground v.1.15,2013-09-09 03:10:00,
2013-09-08 23:16:00,47.2,42.0,30.03,North,351,0.0,0.0,82,0.00,,,0.37,0,Wunderground v.1.15,2013-09-09 03:16:00,
2013-09-08 23:21:00,47.1,41.6,30.04,North,351,0.0,0.0,81,0.00,,,0.37,0,Wunderground v.1.15,2013-09-09 03:21:00,
2013-09-08 23:26:00,47.1,41.6,30.04,North,351,0.0,0.0,81,0.00,,,0.37,0,Wunderground v.1.15,2013-09-09 03:26:00,
2013-09-08 23:31:00,47.1,41.6,30.04,North,351,0.0,0.0,81,0.00,,,0.37,0,Wunderground v.1.15,2013-09-09 03:31:00,
2013-09-08 23:36:00,47.1,41.2,30.04,North,351,0.0,0.0,80,0.00,,,0.37,0,Wunderground v.1.15,2013-09-09 03:36:00,
2013-09-08 23:42:00,47.1,41.2,30.04,North,351,0.0,0.0,80,0.00,,,0.37,0,Wunderground v.1.15,2013-09-09 03:42:00,
2013-09-08 23:47:00,47.1,41.2,30.04,North,351,0.0,0.0,80,0.00,,,0.37,0,Wunderground v.1.15,2013-09-09 03:47:00,
2013-09-08 23:53:00,47.0,41.5,30.04,North,351,0.0,0.0,81,0.00,,,0.37,0,Wunderground v.1.15,2013-09-09 03:53:00,
2013-09-08 23:58:00,46.9,41.7,30.04,North,351,0.0,0.0,82,0.00,,,0.37,0,Wunderground v.1.15,2013-09-09 03:58:00,